STARLINK-1904 (48389 NORAD) Tracking and Keplerian Element Data

This shows tracking and keplerian element data for the satellite.

Feedback or suggestion? Click here.




ElementValue
Catalog48389
NameSTARLINK-1904
Epoch Orbit366
Epoch Day214.91667824
Epoch Year2021
RAAN322.4258
Inclination53.0494
Eccentricity0.0001479
Argument of Perigee97.8004
Mean Anonmoly111.8468
Mean Motion15.08726282
Decay Rate-0.01138422
L11 48389U 21038AN 21214.91667824 -.01138422 00000-0 -77900-1 0 9996
L22 48389 53.0494 322.4258 0001479 97.8004 111.8468 15.08726282 3669

Live tracking and technical data element details for STARLINK-1904 (NORAD 48389). STARLINK-1904 can be tracked NOW for your location showing map with azimuth and elevation plus other details from your city location.

Track the satellite on the map from your city or location and see movement details for azimuth, elevation, latitude, longitude, range, height, and movement on the map or in text.







IsCatalogInMostPopularTable: catalog: 48389, numindb: 26
Update: records affected: 1



GetName: 48389 STARLINK-1904

Hit Count: updated at: Wed, 04 Aug 2021 00:20:11 GMT